Info for "Activities/WindowsTaxRefund"

[Show "Revision History"] [Show "General Page Infos"] [Show "Page hits and edits"]

Revision History

Showing page edit history entries from 1 to 94 out of 94 entries total. (5 | 10 | 25 | 50 | 100 | 200 items per page)

# Date Size Editor Comment Action
257 2017-04-01 11:36:58 10045 to previous sabet   view
256 2016-07-27 21:54:57 10014 to previous peter.nowee Add link to new country-specific page for The Netherlands view
255 2016-03-25 15:45:16 9958 to previous paul Renamed from 'Migrated/WindowsTaxRefund'. view
254 2015-05-21 08:12:59 9906 to previous anonymous   view
253 2014-09-22 10:09:36 9912 to previous anonymous   view
252 2013-02-22 13:32:35 9872 to previous anonymous   view
251 2012-07-19 17:05:07 9831 to previous anonymous   view
250 2012-07-19 17:03:55 9831 to previous anonymous   view
249 2012-07-19 17:02:39 9741 to previous anonymous   view
248 2012-07-12 13:30:39 9539 to previous anonymous   view
247 2012-07-12 13:19:31 9472 to previous anonymous   view
246 2012-07-12 13:19:00 9513 to previous anonymous   view
245 2012-07-12 13:13:32 9495 to previous anonymous   view
244 2012-07-12 13:10:58 9497 to previous anonymous   view
243 2012-07-12 12:31:55 8900 to previous anonymous   view
242 2012-07-12 12:02:51 8891 to previous anonymous   view
241 2012-07-12 09:45:25 7277 to previous anonymous   view
240 2012-01-13 23:08:50 6870 to previous anonymous Some minor edits and link changes. view
239 2011-10-23 08:56:31 6848 to previous anonymous   view
238 2011-01-28 20:17:45 6772 to previous anonymous Adding Finland to the list view
237 2010-08-27 12:53:52 6731 to previous anonymous   view
236 2010-08-27 12:52:50 6729 to previous anonymous   view
235 2010-08-27 12:50:14 6727 to previous anonymous   view
234 2010-05-08 12:28:40 6469 to previous anonymous Add Austria view
233 2010-03-11 10:01:19 6428 to previous anonymous   view
232 2010-03-10 13:32:05 6228 to previous anonymous   view
231 2010-03-10 10:46:20 5880 to previous anonymous   view
230 2010-03-10 10:44:33 5863 to previous anonymous   view
229 2010-03-10 10:42:41 5740 to previous anonymous updated formating and made some nicer links view
228 2010-03-10 10:38:53 5722 to previous anonymous   view
227 2010-03-10 10:33:28 6012 to previous anonymous Added a first draft for a guide view
226 2010-03-10 10:09:30 2600 to previous anonymous   view
225 2010-03-10 09:37:47 2544 to previous anonymous   view
224 2010-03-10 09:33:49 2841 to previous anonymous   view
223 2010-03-10 09:20:32 2856 to previous anonymous it's in outside Europe view
222 2010-03-10 09:18:25 2908 to previous anonymous   view
221 2010-03-10 09:12:18 2856 to previous anonymous   view
220 2010-03-10 09:08:47 2861 to previous anonymous   view
219 2010-03-10 08:50:01 2817 to previous anonymous moved to UK view
218 2009-12-06 16:53:11 2962 to previous anonymous added blog link view
217 2009-10-02 14:06:54 2819 to previous anonymous added the "My Universiry offers me my Microsoft Windows license Wordwide Campaign" view
216 2009-10-02 14:03:42 2810 to previous anonymous   view
215 2009-08-26 12:19:46 2588 to previous anonymous   view
214 2009-08-26 12:09:03 2850 to previous anonymous formting changes. Should not use <BR> view
213 2009-08-26 11:36:37 2871 to previous anonymous major cleanup view
212 2009-08-26 06:47:14 6667 to previous anonymous some small improvements view
211 2009-08-21 09:25:53 6872 to previous anonymous looks better than the old name view
210 2009-08-20 11:26:16 6827 to previous anonymous added Ireland/Acer, minor fixes view
209 2009-08-20 11:23:45 6815 to previous anonymous   view
208 2009-08-14 22:22:30 6615 to previous anonymous Punctuation, formatting fixes. view
207 2009-08-14 14:23:44 6613 to previous anonymous Poul-Henning Kamp, FreeBSD developer, sues Lenovo view
206 2009-08-14 12:27:03 6353 to previous anonymous minor fix view
205 2009-07-28 08:26:26 6318 to previous anonymous alphabetical order view
204 2009-07-28 08:08:16 6270 to previous anonymous added Russia FAS press release view
203 2009-07-03 09:14:14 6137 to previous anonymous   view
202 2009-05-03 10:40:51 6003 to previous anonymous   view
201 2009-04-14 15:52:01 5907 to previous anonymous   view
200 2009-03-28 20:07:28 5955 to previous anonymous added link to http://www.racketware.info/index view
199 2009-03-28 20:03:56 5883 to previous anonymous added link to German news article about swiss case view
198 2009-03-28 19:59:24 5687 to previous anonymous another case in switzerland view
197 2009-02-10 01:14:12 5564 to previous anonymous UK: Microsoft tax unacceptable view
196 2009-01-06 17:36:49 5426 to previous anonymous Add switzerland link view
195 2008-12-20 00:37:14 5283 to previous anonymous added better source for Israel case view
194 2008-12-20 00:25:24 5170 to previous anonymous added court ruling (pdf) view
193 2008-12-20 00:00:14 5076 to previous anonymous added recent news entry - Israel view
192 2008-12-19 23:57:36 4948 to previous anonymous added news entry from Oct 2007 - Italy view
191 2008-11-12 12:35:11 4803 to previous anonymous   view
190 2008-11-12 12:33:52 4752 to previous anonymous   view
189 2008-10-25 11:40:20 4734 to previous anonymous   view
188 2008-10-25 11:36:57 4648 to previous anonymous   view
187 2008-10-25 11:33:44 4624 to previous anonymous   view
186 2008-10-25 11:30:04 4582 to previous anonymous   view
185 2008-10-24 09:45:06 4291 to previous anonymous fixed syntax view
184 2008-10-24 09:08:25 4290 to previous anonymous added link to italian resource view
183 2008-10-12 21:39:44 4162 to previous anonymous   view
182 2008-10-11 09:12:42 4075 to previous anonymous added Italian ressource view
181 2008-10-09 15:49:57 3726 to previous anonymous   view
180 2008-10-09 15:47:59 3650 to previous anonymous   view
179 2008-10-09 15:47:16 3627 to previous anonymous   view
178 2008-10-09 15:45:53 3587 to previous anonymous ordered a bit... view
177 2008-10-09 15:39:45 3311 to previous anonymous added dates view
176 2008-10-09 15:37:38 3280 to previous anonymous   view
175 2008-10-09 15:37:04 3289 to previous anonymous added information view
174 2008-10-07 14:51:58 3119 to previous anonymous   view
173 2008-10-06 20:20:43 3087 to previous anonymous   view
172 2008-10-06 20:19:55 3091 to previous anonymous   view
171 2008-10-06 20:06:40 2955 to previous anonymous two new links view
170 2008-07-03 09:33:18 2645 to previous anonymous I just edited the ez article, so removed my name from detaxe.org entry. view
169 2008-05-19 09:31:18 2685 to previous anonymous Belgian attempt to get reimbursed for a Toshiba: http://wiki.open-minds.org/vente_liee:historique_remboursement_bundle_logiciel_portege_r500 view
168 2008-05-16 14:35:13 2491 to previous anonymous not as headlines view
167 2008-05-16 14:33:43 2505 to previous anonymous other format view
166 2008-05-07 06:43:30 2532 to previous anonymous syntax view
165 2008-03-18 15:00:03 2504 to previous anonymous   view
163 2008-03-18 15:00:03 2516 to previous anonymous   view